Find Starlink 11676

NORAD ID: 63757 Int'l Des: 2025-089 Owner: SPXS Country: US Constellation: starlink operational
LEOCIRCULAR

Live-Position

3D-Globus wird geladen...

Über Starlink 11676

Beschreibung wird geladen...

Nächste Überflüge

Passes for default location (London). Set your location on the main map for personalized predictions.

Höhenverlauf

Loading altitude history...

Zweizeiliger Elementsatz

1 63757U 25089G 26127.52528918 .00139029 00000-0 10686-2 0 9997
2 63757 42.9996 297.1688 0002155 276.6036 83.4586 15.70848010 59285
Epoch: 7. Mai 2026 • Age: 11 hours

Aktueller Status

Höhe 355.3 km
Geschwindigkeit 7.70 km/s
Subsatellitenpunkt 6.16°N, 85.38°E
Startdatum 29. Apr. 2025
Alter 1 years
Typ internet

Technische Details

Klassifizierung Payload
Masse 960.00 kg
Trockenmasse 910.00 kg
Gesamtmasse 960.00 kg
Länge 0.30 m
Durchmesser 4.10 m
Spannweite 29.00 m
Form Box + pan
Hersteller SPXS
Bus-Typ Starlink V2MD
Phasenstatus In Orbit
Besitzer/Staat SPXS/US

Most Searched